Regional Weather Roundup
Issued by NWS

Home | Current Version | Previous Version | Graphics & Text | Print | Product List | Glossary On
Versions: 1 2 3 4 5 6 7 8 9 10 11 12 13 14 15 16 17 18 19 20 21 22 23 24 25 26 27 28 29 30 31 32 33 34 35 36 37 38 39 40 41 42 43 44 45 46 47 48 49 50
000
ASUS44 KMEG 220100
RWRTN
TENNESSEE HOURLY STATE WEATHER ROUNDUP
NATIONAL WEATHER SERVICE MEMPHIS TN
800 PM CDT THU AUG 21 2014

TNZ002-004-019-021-049-052-054-088>092-220200-
WEST TENNESSEE

CITY           SKY/WX    TMP DP  RH WIND       PRES   REMARKS
MEMPHIS INTL   PTCLDY    87  72  60 S7        30.05R HX  93
NWS MEMPHIS      N/A     88 N/A N/A MISG        N/A
JACKSON        CLEAR     82  76  81 S3        30.04R
DYERSBURG      CLEAR     84  66  54 CALM      30.02S
UNION CITY     CLEAR     81  75  83 S6        30.00S
PARIS          CLEAR     77  72  83 S5        30.03S
LEXINGTON      CLEAR     81  73  78 S3        30.04S
SAVANNAH       CLEAR     81  79  94 CALM      30.07R
$$

TNZ008-025-027-028-033-062-065-066-220200-
NORTH MIDDLE TENNESSEE

CITY           SKY/WX    TMP DP  RH WIND       PRES   REMARKS
NASHVILLE      PTCLDY    86  71  60 SW3       30.05S HX  91
CLARKSVILLE    CLEAR     82  71  69 S5        30.02S
COOKEVILLE     CLEAR     79  75  89 CALM      30.09S
CROSSVILLE     CLEAR     75  71  87 CALM      30.15F
$$

TNZ061-075-076-078-094-096-097-220200-
SOUTH MIDDLE TENNESSEE

CITY           SKY/WX    TMP DP  RH WIND       PRES   REMARKS
FAYETTEVILLE   CLEAR     82  70  65 CALM      30.10R
TULLAHOMA      CLEAR     79  72  78 CALM      30.11R
WINCHESTER     PTCLDY    81  75  83 CALM      30.10S
COLUMBIA       CLEAR     82  75  78 S3        30.06R
SHELBYVILLE    CLEAR     81  75  83 E3        30.09R
$$

TNZ017-018-042-046-047-220200-
NORTHEAST TENNESSEE

CITY           SKY/WX    TMP DP  RH WIND       PRES   REMARKS
TRI CITIES     CLOUDY    77  73  87 CALM      30.12F
ELIZABETHTON   LGT RAIN  72  72 100 CALM      30.13F
$$

TNZ012-013-036-069-073-074-220200-
CENTRAL EAST TENNESSEE

CITY           SKY/WX    TMP DP  RH WIND       PRES   REMARKS
KNOXVILLE      PTCLDY    82  71  69 S6        30.08F
OAK RIDGE      CLEAR     80  75  84 CALM      30.10S
GATLINBURG     CLEAR     79  72  78 CALM      30.10R
$$

TNZ083-085-099-220200-
SOUTHEAST TENNESSEE

CITY           SKY/WX    TMP DP  RH WIND       PRES   REMARKS
CHATTANOOGA    PTCLDY    85  71  63 CALM      30.08S HX  90
$$

SKY/WX REPORTED AS FAIR MEANS FEW OR NO CLOUDS BELOW
12 THOUSAND FEET.



USA.gov is the U.S. government's official web portal to all federal, state and local government web resources and services.